Miscellaneous Local Product
Issued by NWS Hastings, NE

Home | Current Version | Previous Version | Graphics & Text | Print | Product List | Glossary On
Versions: 1 2 3 4 5 6 7 8 9 10 11 12 13 14 15 16 17 18 19 20 21 22 23 24 25 26 27 28 29 30 31 32 33 34 35 36 37 38 39 40 41 42 43 44 45 46 47 48 49 50
881
AXUS43 KGID 240702
MISGRI

GID CWA HOURLY WEATHER ROUNDUP
NATIONAL WEATHER SERVICE HASTINGS NE
200 AM CDT FRI MAR 24 2017

NOTE: "FAIR" INDICATES FEW OR NO CLOUDS BELOW 12,000 FEET WITH NO
SIGNIFICANT WEATHER AND/OR OBSTRUCTIONS TO VISIBILITY.

...SOUTH CENTRAL NEBRASKA...

CITY           SKY/WX    TMP DP  RH WIND       PRES   REMARKS
GRAND ISLAND   LGT RAIN  56  54  93 N18G25    29.74R
HASTINGS       LGT RAIN  62  52  69 SW8       29.73R
KEARNEY        CLOUDY    54  50  87 N21       29.76R
ORD            RAIN      53  51  93 NE9       29.76R FOG
YORK           CLOUDY    59  55  88 NW12      29.72R
AURORA         LGT RAIN  58  55  88 NW14      29.72R
LEXINGTON      CLOUDY    55  51  88 NE18      29.71F
HOLDREGE       TSTM      55  52  91 N16       29.74R
HEBRON         CLOUDY    68  48  47 S15G21    29.69R

...NEBRASKA PANHANDLE...

CITY           SKY/WX    TMP DP  RH WIND       PRES   REMARKS
CHADRON        CLOUDY    43  38  82 N12       29.93R
ALLIANCE       CLOUDY    42  40  92 NE23      29.87R
SCOTTSBLUFF    CLOUDY    42  37  82 N18G25    29.90R
SIDNEY         CLOUDY    44  41  89 N23G35    29.82R

...WESTERN AND NORTH CENTRAL NEBRASKA...

CITY           SKY/WX    TMP DP  RH WIND       PRES   REMARKS
VALENTINE      CLOUDY    45  41  86 N14       29.86R
AINSWORTH      LGT RAIN  47  47 100 N16       29.84R
ONEILL         CLOUDY    49  49 100 N10       29.81R FOG
BROKEN BOW     CLOUDY    53  51  93 NE20G30   29.76R
IMPERIAL       RAIN      48  45  89 NE18G32   29.73R FOG
NORTH PLATTE   RAIN      53  49  86 NE13      29.75R
MCCOOK         NOT AVBL

...EASTERN NEBRASKA...

CITY           SKY/WX    TMP DP  RH WIND       PRES   REMARKS
NORFOLK        RAIN      54  53  97 NE5       29.78R FOG
SO SIOUX CITY  LGT RAIN  49  49 100 SW5       29.75S
TEKAMAH        LGT RAIN  56  51  84 NW16      29.75R
COLUMBUS       CLOUDY    55  52  88 N13       29.74R
ALBION         HVY RAIN  56  53  89 NE5       29.77R
OMAHA EPPLEY   CLOUDY    70  51  51 S14       29.69R
OFFUTT AFB     CLOUDY    66  53  62 S9        29.69S
MILLARD        CLOUDY    72  53  51 S8        29.69F
LINCOLN        CLOUDY    67  50  54 SW7       29.70R
NEBRASKA CITY  MOCLDY    66  43  43 S15       29.71R
BEATRICE       CLOUDY    69  49  49 S14       29.69F
FALLS CITY     PTCLDY    65  48  54 S13       29.74S

...NORTHERN KANSAS...

CITY           SKY/WX    TMP DP  RH WIND       PRES   REMARKS
GOODLAND       CLOUDY    54  51  90 E23G29    29.59R
HILL CITY      CLOUDY    56  56 100 NW6       29.68F
NORTON         LGT RAIN  55  48  76 SW5       29.68
PHILLIPSBURG   LGT RAIN  59  54  82 CALM      29.70
HAYS             N/A     66  48  52 S8        29.66S
RUSSELL        CLOUDY    67  45  45 S20G26    29.65S
CONCORDIA      CLOUDY    71  48  43 S24G35    29.69F
SALINA         MOCLDY    72  48  42 S15       29.71S
TOPEKA         CLOUDY    69  52  54 S6        29.80R



USA.gov is the U.S. government's official web portal to all federal, state and local government web resources and services.